Regional Weather Roundup
Issued by NWS New Orleans/Baton Rouge, LA

Home | Current Version | Previous Version | Text Only | Print | Product List | Glossary On
Versions: 1 2 3 4 5 6 7 8 9 10 11 12 13 14 15 16 17 18 19 20 21 22 23 24 25 26 27 28 29 30 31 32 33 34 35 36 37 38 39 40 41 42 43 44 45 46 47 48 49 50
000
ASUS44 KLIX 130811
RWRLIX
NEW ORLEANS REGIONAL WEATHER ROUNDUP
NATIONAL WEATHER SERVICE NEW ORLEANS LA
200 AM CST SAT FEB 13 2016

NOTE: "FAIR" INDICATES FEW OR NO CLOUDS BELOW 12,000 FEET WITH NO
      SIGNIFICANT WEATHER AND/OR OBSTRUCTIONS TO VISIBILITY.
      SKY/WX - SKY CONDITION AND SIGNIFICANT WEATHER.
      TMP - AIR TEMPERATURE.     DP    - DEWPOINT TEMPERATURE.
      RH  - RELATIVE HUMIDITY.   PRES  - PRESSURE.
      HI  - HEAT INDEX.          WCI   - WIND CHILL INDEX.

*  THESE STATIONS ARE NOT NWS OR FAA STATIONS AND ARE NOT UNDER
   NWS QUALITY CONTROL.

LAZ038-040-048-061>063-065>067-069-130900-
SOUTHEAST LOUISIANA

CITY           SKY/WX    TMP DP  RH WIND       PRES   REMARKS
N.O. AUDUBON     N/A     55  38  51 MISG        N/A
N.O. INTL ARPT PTCLDY    55  38  52 NE9       30.30S
N.O. LAKEFRONT PTCLDY    54  41  61 NE13      30.30S
N.O. DOWNTOWN* NOT AVBL
RESERVE*         N/A     56  37  49 NE6       30.30S
SLIDELL        CLEAR     52  36  54 N9        30.29S
BATON ROUGE    CLEAR     52  35  52 NE8       30.30S
BOOTHVILLE     PTCLDY    55  47  74 VRB3      30.28S
BELLE CHASSE   PTCLDY    55  38  52 N6        30.29S
BOGALUSA*        N/A     47  36  63 N5        30.33S
GALLIANO*      SUNNY     57  49  74 N5        30.29S
NEW ROADS*       N/A     51  36  57 NE7       30.31S
GONZALES*        N/A     55  38  52 NE3       30.29S
HAMMOND*       PTCLDY    52  32  46 NE5       30.30S
HOUMA*         CLOUDY    56  47  70 NE7       30.29F
PORT FOURCHON* SUNNY     59  57  94 N6        30.29S

$$

MSZ070-080>082-130900-
SOUTHERN MISSISSIPPI

CITY           SKY/WX    TMP DP  RH WIND       PRES   REMARKS
MCCOMB         PTCLDY    48  35  60 N3        30.33S
GULFPORT       CLEAR     52  33  48 N10       30.29S
BILOXI         CLEAR     53  37  55 N7        30.29R
PASCAGOULA     PTCLDY    50  37  61 N12       30.29R

$$

COASTAL OBSERVATIONS
LAKE AND NEARSHORE STATIONS

STATION/POSITION TIME  TEMP    WIND        PRES    WAVE
                       AIR SEA DIR/SP/G            HT/PER
                 (UTC) (F)     (DEG/KT/KT) (MB)    (FT/S)
PASCAGOULA       0700   55     360/ 11/ 13 1024.9
WAVELAND YACHT   0700   56 59  360/ 15/ 18 1025.5
GRAND ISLE       0700   62 65  360/  9/ 10 1025.3
NEW CANAL        0700   56 55   30/ 10/ 12 1024.9
SHELL BEACH      0700   57 57   10/ 12/ 13 1024.9

OFFSHORE STATIONS

STATION/POSITION TIME  TEMP    WIND        PRES    WAVE
                       AIR SEA DIR/SP/G            HT/PER
                 (UTC) (F)     (DEG/KT/KT) (MB)    (FT/S)

$$




USA.gov is the U.S. government's official web portal to all federal, state and local government web resources and services.